Location: Unspecified
(0.0000°N, 0.0000°E)
Time: 07:43:33
(UTC+00:00)

STARLINK-32002 - Pass Details

Date: 22 December 2025
Orbit: 475 x 476 km, 53.2° (Epoch: 18 January)

Event Time Altitude Azimuth Distance (km) Brightness Sun altitude
Exits shadow 04:30:13 10° 213° (SSW) 1,615 5.9 -20.2°
Drops below altitude 10° 04:30:21 10° 211° (SSW) 1,638 6.0 -20.1°
Sets 04:33:42 0° 179° (S) 2,518 7.3 -19.4°
